Flag for Malaysia Weather past 2 weeks in Langkawi, Malaysia

Now
91 °F

Partly sunny.


Feels Like: 111 °F
Forecast: 82 / 91 °F
Wind: 7 mph from West

Location: Langkawi

Current Time: Apr 21, 2015 at 5:27:38 PM

Latest Report: Apr 21, 2015 at 5:00 PM


Visibility: N/A

Pressure: 29.74 "Hg

Humidity: 71%

Dew point: 81 °F

Location of LangkawiLocation

Historic Weather in Langkawi — Graph

°F

Langkawi temperature yesterday

Maximum temperature yesterday: 90 °F (at 3:00 PM)
Minimum temperature yesterday: 75 °F (at 4:00 AM)
Average temperature yesterday: 83 °F

Past Weeks' High & Low Weather Summary

 TemperatureHumidityPressure
High95 °F (Apr 9, 2:00 PM)100% (Apr 10, 6:00 PM)29.95 "Hg (Apr 10, 6:00 PM)
Low75 °F (Apr 20, 4:00 AM)49% (Apr 7, 1:00 PM)29.68 "Hg (Apr 7, 5:00 PM)
Average84 °F80%29.82 "Hg
* Reported Apr 6 4:00 PM — Apr 21 4:00 PM, Langkawi, Weather by CustomWeather, © 2015

Note: Actual official high and low records may vary slightly from our data, if they occured in-between our weather recording intervals... More about our weather records

Advertising

Langkawi weather history for previous 24 hours

 ConditionsComfort  
Time TempWeatherWind HumidityBarometerVisibility
4:00 PM
Tue, Apr 21
90 °FPartly sunny.7 mph75%29.74 "HgN/A
3:00 PM91 °FPartly sunny.7 mph71%29.77 "HgN/A
2:00 PM91 °FBroken clouds.8 mph75%29.83 "HgN/A
1:00 PM91 °FBroken clouds.7 mph67%29.86 "HgN/A
12:00 PM90 °FBroken clouds.7 mph71%29.86 "HgN/A
11:00 AM90 °FBroken clouds.5 mph71%29.86 "HgN/A
10:00 AM90 °FBroken clouds.2 mph75%29.86 "HgN/A
9:00 AM86 °FPartly sunny.No wind84%29.86 "HgN/A
8:00 AM81 °FBroken clouds.No wind94%29.83 "HgN/A
7:00 AM81 °FPassing clouds.No wind89%29.80 "HgN/A
6:00 AM81 °FPassing clouds.No wind94%29.80 "HgN/A
5:00 AM81 °FPassing clouds.No wind89%29.80 "HgN/A
4:00 AM81 °FPassing clouds.No wind89%29.80 "HgN/A
3:00 AM81 °FPassing clouds.1 mph89%29.80 "HgN/A
2:00 AM81 °FPassing clouds.1 mph89%29.83 "HgN/A
1:00 AM82 °FPassing clouds.1 mph84%29.86 "HgN/A
12:00 AM82 °FPassing clouds.2 mph84%29.86 "HgN/A
11:00 PM
Mon, Apr 20
82 °FPassing clouds.No wind89%29.86 "HgN/A
10:00 PM82 °FPassing clouds.No wind89%29.83 "HgN/A
9:00 PM84 °FPassing clouds.1 mph84%29.83 "HgN/A
8:00 PM86 °FPassing clouds.2 mph79%29.80 "HgN/A
7:00 PM86 °FPartly sunny.5 mph79%29.77 "HgN/A
6:00 PM88 °FPartly sunny.5 mph75%29.77 "HgN/A
5:00 PM88 °FPartly sunny.7 mph75%29.77 "HgN/A
Weather by CustomWeather, © 2015

See weather overviewHow to use our weather pages